Tracking 29892 objects as of 21-Nov-2024
HD Live streaming from Space Station
objects crossing your sky now

COSMOS 2295 (GLONASS)

Track COSMOS 2295 (GLONASS) now!
COSMOS 2295 (GLONASS) is classified as:


NORAD ID: 23396
Int'l Code: 1994-076A
Perigee: 19,037.5 km
Apogee: 19,236.5 km
Inclination: 64.5 °
Period: 675.7 minutes
Semi major axis: 25507 km
RCS: 2.9701 m2 (large)
Launch date: November 20, 1994
Source: Commonwealth of Independent States (former USSR) (CIS)
Launch site: TYURATAM MISSILE AND SPACE COMPLEX (TTMTR)
Your satellite tracking list
Your tracking list is empty




NASA's NSSDC Master Catalog

Two Line Element Set (TLE):
1 23396U 94076A   24322.23868884 -.00000006  00000-0  00000-0 0  9996
2 23396  64.5186  88.9925 0039009 202.2118 160.1804  2.13102522233212
Source of the keplerian elements: AFSPC